STARLINK-30508, 57979

Orbit data source: Space-Track

STARLINK-30508, 57979 is a payload satellite owned by SpaceX/Seattle (US) in LEO that was launched on Sat, 30 Sep 2023 UTC via an FALCON 9 launch vehicle from the Air Force Eastern Test Range (AFETR). Payload-class satellites include a variety of spacecraft equipped with specific instruments for various scientific and technological missions. These include communications satellites like Starlink; space stations such as the ISS; scientific satellites like the Hubble; Earth observation satellites from companies like Planet Labs, Umbra, and HawkEye 360; GPS; miniature CubeSats for education and research; and military/defense satellites.

Loading next visibility...
Identifier
57979, 2023-151R
Orbit
LEO
Country
Flag of USUS
Related business
Manufacturer
SpaceX/Seattle
Mission
Operational Commercial Communications
Bus & Motor
STARLINK V2M, Unknown motor
Mass
730 kg wet, ~700 kg dry
Launch date (UTC)
2023-09-30 (3 years ago)
Launch vehicle
FALCON 9
Launch site
Air Force Eastern Test Range (AFETR)
Object type
Payload
Rocket body
Debris
Shape & HBR
Box + 2 Pan, 17.7 m
Radar Cross Section
33.884 m², Large (>1 m²)

Expand to show TLE details & history
Last TLE update: 14 hours ago

TLE from 14 hours ago
0 STARLINK-30508
1 57979U 23151R   26192.80397162  .00006366  00000-0  24064-3 0  9995
2 57979  43.0050   9.8703 0002303 266.2180  93.8409 15.27584656154575
Epoch: 2026-07-11T19:17Z
TLE epoch observation values (Epoch: 2026-07-11T19:17:43.147Z)
Latitude
Longitude
150.72858°
Altitude
482.917 km
Speed
7.626 km/s
True Right ascension
00h 39m 28s
True Declination
0° 00' 00"
Sunlit
Object was in daylight at epoch
Visualization orbit readout
Latitude
Unknown
Longitude
Unknown
Altitude
Unknown
Speed
Unknown
Apparent Right ascension
Unknown
Apparent Declination
Unknown
Sunlit
N/A
Visualization observer readout
Local Sidereal Time
21:58:09
Azimuth
Unknown
Elevation
Unknown
Doppler factor
Unknown
Orbital elements
Apogee altitude
486.56 km
Perigee altitude
483.399 km
Semi-major axis
6,863.116 km
Eccentricity
0.00023
Inclination
43.005°
RAAN
9.8703°
Arg. of periapsis
266.218°
True anomaly
93.86723°
Mean anomaly
93.8409°
Eccentric anomaly
93.85407°
Mean motion
3.81734 °/min
Orbital period
94.31 mins
BSTAR
0.00024064
Loading maneuver chart data...
Computing Atmospheric mass density...
Loading historical data...
Loading historical data...
Loading historical data...
Loading historical data...
Loading historical data...
Loading historical data...
Loading historical data...

Documentation

Showing up to 5 results
|